KE4JRS Weather Reports


time (UTC)temp
C
wind
direction
speed
KPH
gust
KPH
rain 1hr
cm
rain 24hr
cm
rain mn
cm
humidity
%
barometer
mb
20260504151010 25 159 3.2 12.9 0.00 0.30 0.10 81 1015.4
20260504150511 25 143 3.2 12.9 0.00 0.30 0.10 82 1015.4
20260504141013 23 138 0.0 9.7 0.00 0.30 0.10 88 1015.2
20260504140508 23 158 4.8 9.7 0.00 0.30 0.10 87 1015.2
20260504130504 23 135 0.0 1.6 0.00 0.30 0.10 92 1014.6
20260504110502 21 160 0.0 3.2 0.00 0.74 0.10 95 1013.9
20260504100507 21 135 0.0 3.2 0.00 0.74 0.10 94 1013.6
20260504082003 22 83 1.6 3.2 0.08 0.74 0.10 93 1013.1
20260504081511 22 82 0.0 3.2 0.10 0.74 0.10 93 1013.2
20260504081003 22 86 0.0 1.6 0.10 0.74 0.10 93 1013.3
20260504080503 22 86 0.0 1.6 0.10 0.74 0.10 93 1013.3
20260504050504 23 162 0.0 0.0 0.00 0.64 0.00 93 1015.2
20260504050006 23 162 0.0 0.0 0.00 0.64 0.00 93 1015.3
20260504045502 23 162 0.0 0.0 0.00 0.64 0.00 92 1015.2
20260504045003 23 162 0.0 0.0 0.00 0.64 0.00 93 1015.2
20260504044522 23 162 0.0 0.0 0.00 0.64 0.00 92 1015.3
20260504044009 23 162 0.0 0.0 0.00 0.64 0.00 92 1015.2
20260504043506 23 162 0.0 0.0 0.00 0.64 0.00 92 1015.1
20260504043018 23 162 0.0 0.0 0.00 0.64 0.00 92 1015.3
20260504042506 23 162 0.0 0.0 0.00 0.64 0.00 92 1015.3
20260504042006 23 162 0.0 0.0 0.00 0.64 0.00 92 1015.3
20260504041524 23 162 0.0 0.0 0.00 0.64 0.00 92 1015.2
20260504041005 23 162 0.0 0.0 0.00 0.64 0.00 92 1015.2
20260504040508 23 162 0.0 0.0 0.00 0.64 0.00 91 1015.0
20260504040026 23 162 0.0 0.0 0.00 0.64 0.00 91 1014.9
20260504035507 23 162 0.0 0.0 0.00 0.64 0.64 91 1015.2
20260504035001 23 162 0.0 0.0 0.00 0.64 0.64 91 1015.3
20260504034512 23 162 0.0 0.0 0.00 0.64 0.64 91 1015.1
20260504034002 23 162 0.0 0.0 0.00 0.64 0.64 91 1015.0
20260504033503 23 162 0.0 0.0 0.00 0.64 0.64 90 1014.9
20260504033015 23 162 0.0 0.0 0.00 0.64 0.64 90 1015.0
20260504032507 23 162 0.0 1.6 0.00 0.64 0.64 90 1015.0
20260504032011 23 162 0.0 1.6 0.00 0.64 0.64 90 1015.0
20260504031522 23 162 0.0 1.6 0.00 0.64 0.64 90 1015.1
20260504031006 23 162 0.0 3.2 0.00 0.64 0.64 90 1015.2
20260504030509 23 162 0.0 4.8 0.00 0.64 0.64 90 1015.3
20260504030039 23 174 0.0 4.8 0.00 0.64 0.64 90 1015.2
20260504025512 23 177 1.6 4.8 0.00 0.64 0.64 90 1015.3
20260504025009 23 169 0.0 1.6 0.00 0.64 0.64 89 1015.2
20260504024524 23 172 0.0 6.4 0.00 0.64 0.64 89 1015.3
20260504024003 23 172 0.0 6.4 0.00 0.64 0.64 89 1015.3
20260504023506 23 191 1.6 4.8 0.00 0.64 0.64 89 1015.3
20260504023012 23 183 0.0 3.2 0.00 0.64 0.64 89 1015.2
20260504022502 23 158 0.0 3.2 0.00 0.64 0.64 90 1015.2
20260504022008 23 159 0.0 3.2 0.00 0.64 0.64 90 1015.2
20260504021518 23 190 0.0 3.2 0.00 0.64 0.64 90 1015.1
20260504021008 23 190 0.0 3.2 0.00 0.64 0.64 90 1015.0
20260504020508 23 167 0.0 3.2 0.00 0.64 0.64 91 1014.9
20260504020022 23 175 0.0 3.2 0.00 0.64 0.64 91 1015.0
20260504015510 23 175 0.0 3.2 0.00 0.64 0.64 91 1015.0
20260504015008 23 175 0.0 3.2 0.00 0.64 0.64 91 1015.0
20260504014536 23 324 0.0 0.0 0.00 0.64 0.64 91 1015.0
20260504014012 23 324 0.0 0.0 0.00 0.64 0.64 92 1015.0
20260504013510 23 324 0.0 0.0 0.00 0.64 0.64 92 1015.1
20260504013026 23 324 0.0 0.0 0.00 0.64 0.64 92 1015.0
20260504012503 23 324 0.0 0.0 0.00 0.64 0.64 92 1015.0
20260504012003 23 324 0.0 0.0 0.00 0.64 0.64 92 1015.0
20260504011513 23 324 0.0 0.0 0.00 0.64 0.64 92 1015.0
20260504011004 23 324 0.0 0.0 0.00 0.64 0.64 92 1014.9
20260504010506 23 324 0.0 0.0 0.00 0.64 0.64 92 1014.7
20260504010022 23 324 0.0 3.2 0.00 0.64 0.64 92 1014.6
20260504005507 23 324 0.0 3.2 0.00 0.64 0.64 92 1014.5
20260504005006 23 324 0.0 0.0 0.00 0.64 0.64 92 1014.3
20260504004524 23 324 0.0 0.0 0.00 0.64 0.64 92 1014.4
20260504004010 23 324 0.0 1.6 0.00 0.64 0.64 92 1014.4
20260504003512 23 336 0.0 1.6 0.00 0.64 0.64 92 1014.4
20260504003031 23 336 0.0 1.6 0.00 0.64 0.64 92 1014.4
20260504002507 23 336 0.0 0.0 0.00 0.64 0.64 92 1014.4
20260504002011 23 336 0.0 0.0 0.00 0.64 0.64 92 1014.4
20260504001527 23 336 0.0 0.0 0.00 0.64 0.64 91 1014.3
20260504001003 23 336 0.0 0.0 0.00 0.64 0.64 91 1014.3
20260504000503 23 336 0.0 0.0 0.00 0.64 0.64 91 1014.2
20260504000015 23 336 0.0 1.6 0.00 0.64 0.64 91 1014.2
20260503235504 23 336 0.0 4.8 0.00 0.64 0.64 90 1014.1
20260503235010 23 336 0.0 4.8 0.00 0.64 0.64 90 1013.9
20260503234530 23 220 0.0 1.6 0.00 0.64 0.64 90 1013.9
20260503234007 23 220 0.0 3.2 0.00 0.64 0.64 90 1013.9
20260503233507 23 233 0.0 3.2 0.00 0.64 0.64 90 1013.9
20260503233024 23 182 0.0 1.6 0.00 0.64 0.64 89 1013.9
20260503232510 23 211 0.0 1.6 0.00 0.64 0.64 89 1014.0
20260503232009 23 211 0.0 1.6 0.00 0.64 0.64 89 1013.8
20260503231530 23 253 0.0 4.8 0.00 0.64 0.64 89 1013.7
20260503231009 24 254 0.0 4.8 0.00 0.64 0.64 89 1013.8
20260503230508 24 198 0.0 3.2 0.00 0.64 0.64 89 1013.9
20260503230027 24 198 0.0 3.2 0.00 0.64 0.64 89 1014.0
20260503225504 24 169 0.0 1.6 0.00 0.64 0.64 88 1013.9
20260503225005 25 172 0.0 1.6 0.00 0.64 0.64 88 1014.0
20260503224521 25 173 0.0 1.6 0.00 0.64 0.64 88 1013.9
20260503224004 25 77 0.0 3.2 0.00 0.64 0.64 88 1013.8
20260503223506 25 77 1.6 3.2 0.00 0.64 0.64 87 1013.8
20260503223024 25 119 0.0 3.2 0.00 0.64 0.64 86 1013.8
20260503222507 25 245 0.0 4.8 0.00 0.64 0.64 85 1013.6
20260503222009 25 264 0.0 4.8 0.00 0.64 0.64 85 1013.6
20260503221524 25 247 1.6 4.8 0.00 0.64 0.64 85 1013.8
20260503221010 25 251 1.6 3.2 0.00 0.64 0.64 85 1013.8
20260503220511 25 256 0.0 4.8 0.00 0.64 0.64 85 1013.8
20260503220026 25 259 0.0 4.8 0.00 0.64 0.64 85 1013.8
20260503215511 25 240 1.6 4.8 0.00 0.64 0.64 84 1013.8
20260503215007 25 225 1.6 3.2 0.00 0.64 0.64 84 1013.8
20260503214514 25 207 0.0 1.6 0.00 0.64 0.64 85 1013.8
20260503214004 25 198 0.0 1.6 0.00 0.64 0.64 84 1013.9
20260503213508 25 195 0.0 3.2 0.00 0.64 0.64 85 1013.9
20260503213018 25 196 0.0 3.2 0.00 0.64 0.64 84 1013.9
20260503212508 25 234 1.6 3.2 0.00 0.64 0.64 84 1014.0
20260503212009 25 229 0.0 3.2 0.00 0.64 0.64 84 1014.1
20260503211523 25 233 0.0 3.2 0.00 0.64 0.64 84 1014.1
20260503211010 25 245 0.0 3.2 0.00 0.64 0.64 85 1014.0
20260503210514 25 41 0.0 1.6 0.00 0.64 0.64 84 1014.1
20260503210028 25 40 0.0 1.6 0.00 0.64 0.64 85 1014.2
20260503205507 25 40 0.0 1.6 0.00 0.64 0.64 84 1014.3
20260503205009 25 41 0.0 4.8 0.00 0.64 0.64 85 1014.4
20260503204543 25 21 0.0 4.8 0.00 0.64 0.64 85 1014.4
20260503204011 25 64 0.0 1.6 0.00 0.64 0.64 85 1014.5
20260503203511 25 64 0.0 3.2 0.00 0.64 0.64 85 1014.4
20260503203021 25 47 0.0 3.2 0.00 0.64 0.64 85 1014.3
20260503202507 26 339 0.0 1.6 0.00 0.64 0.64 84 1014.4
20260503202009 26 266 0.0 0.0 0.00 0.64 0.64 84 1014.4
20260503201522 26 266 0.0 1.6 0.00 0.64 0.64 84 1014.2
20260503201008 26 266 0.0 1.6 0.00 0.64 0.64 83 1014.1
20260503200507 26 266 0.0 3.2 0.00 0.64 0.64 83 1014.3
20260503200024 26 265 1.6 3.2 0.00 0.64 0.64 82 1014.2
20260503195511 26 41 0.0 3.2 0.00 0.64 0.64 83 1014.3
20260503195009 26 41 1.6 3.2 0.00 0.64 0.64 83 1014.3
20260503194527 26 264 0.0 3.2 0.00 0.64 0.64 84 1014.3
20260503194009 26 246 0.0 3.2 0.00 0.64 0.64 84 1014.3
20260503193509 26 220 0.0 3.2 0.00 0.64 0.64 83 1014.4
20260503193034 26 220 1.6 3.2 0.00 0.64 0.64 83 1014.4
20260503192511 26 215 0.0 3.2 0.00 0.64 0.64 85 1014.6
20260503192015 26 216 0.0 3.2 0.00 0.64 0.64 84 1014.6
20260503191517 26 143 0.0 1.6 0.00 0.64 0.64 84 1014.8
20260503191010 26 142 0.0 1.6 0.00 0.64 0.64 85 1015.0
20260503190508 26 142 0.0 1.6 0.00 0.64 0.64 85 1015.0
20260503190024 26 122 0.0 1.6 0.00 0.64 0.64 85 1015.0
20260503185507 26 116 0.0 0.0 0.00 0.64 0.64 86 1015.0
20260503185010 26 116 0.0 1.6 0.00 0.64 0.64 86 1015.2
20260503184536 25 116 0.0 1.6 0.00 0.64 0.64 86 1015.2
20260503184012 25 116 0.0 1.6 0.20 0.64 0.64 85 1015.2
20260503183509 25 116 0.0 1.6 0.20 0.64 0.64 84 1015.3
20260503183009 26 103 0.0 1.6 0.20 0.64 0.64 85 1015.4
20260503182503 25 102 0.0 1.6 0.20 0.64 0.64 86 1015.4
20260503182006 25 102 0.0 1.6 0.20 0.64 0.64 85 1015.5
20260503181514 25 102 0.0 0.0 0.20 0.64 0.64 86 1015.6
20260503181005 25 102 0.0 0.0 0.20 0.64 0.64 87 1015.7
20260503180506 25 102 0.0 0.0 0.20 0.64 0.64 86 1015.6
20260503180024 25 102 0.0 0.0 0.20 0.64 0.64 85 1015.7
20260503175505 25 102 0.0 1.6 0.20 0.64 0.64 85 1015.6
20260503175010 26 102 0.0 1.6 0.20 0.64 0.64 83 1015.7
20260503174506 26 102 0.0 4.8 0.20 0.64 0.64 80 1015.8
20260503174004 26 102 0.0 4.8 0.00 0.43 0.43 77 1016.1
20260503173503 26 169 0.0 6.4 0.00 0.43 0.43 77 1015.9
20260503173007 26 153 0.0 6.4 0.00 0.43 0.43 77 1015.8
20260503172504 26 200 3.2 6.4 0.00 0.43 0.43 78 1015.8
20260503172003 26 162 1.6 6.4 0.00 0.43 0.43 78 1015.8
20260503171510 26 159 1.6 6.4 0.00 0.43 0.43 78 1015.8
20260503171004 26 187 1.6 6.4 0.00 0.43 0.43 78 1015.8
20260503170506 26 171 1.6 6.4 0.00 0.43 0.43 79 1015.9